sat.trackr.live / text

‹ back to catalog

STARLINK-3754

NORAD 52350 · 2022-045V

PAYLOAD ACTIVE UNKNOWN

§ Identity

Operator
Country
US
Launch date
2022-04-29
Launch site
AFETR
Launch vehicle
Mass (kg)
RCS (m²)

Purposes: comms

External: N2YO · Heavens-Above · Gunter

§ Orbital elements

Epoch: 2026-05-25T04:53:08.399616Z

Period
95.44 min
Inclination
53.2146°
Eccentricity
0.0001235
Mean motion
15.08835707 rev/d
Perigee alt
538.9 km
Apogee alt
540.6 km
Semi-major
6,917.9 km
B*
2.0968e-5
RAAN
215.6364°
Arg perigee
92.0303°
Mean anomaly
268.0830°
Rev number
22,733

§ Raw data

STARLINK-37541 52350U 22045V   26145.20356944  .00000046  00000+0  20968-4 0  99972 52350  53.2146 215.6364 0001235  92.0303 268.0830 15.08835707227331

JSON: /api/v1/satellites/52350 · /tle

For live sub-satellite position, see the globe view (requires WebGL).

§ Visibility from observer

Set your observer location to see the next 7 days of passes ≥ 10°. The values pass through the URL so the page stays shareable.

No JS? Fill the form by hand. The geolocation button needs JavaScript.